Flag for Canada Weather past 2 weeks in Vancouver, British Columbia, Canada

Now
45 °F

Light rain. Overcast.


Feels Like: 43 °F
Forecast: 44 / 48 °F
Wind: 3 mph from East

Location: Vancouver International Air-Port

Current Time: Dec 17, 2014 at 7:56:49 PM

Latest Report: Dec 17, 2014 at 7:00 PM


Visibility: 15 mi

Pressure: 29.91 "Hg

Humidity: 93%

Dew point: 43 °F

Location of VancouverLocation

Historic Weather in Vancouver — Graph

°F

Vancouver temperature yesterday

Maximum temperature yesterday: 48 °F (at 12:00 PM)
Minimum temperature yesterday: 39 °F (at 12:00 AM)
Average temperature yesterday: 44 °F

Past Weeks' High & Low Weather Summary

 TemperatureHumidityPressure
High59 °F (Dec 9, 1:00 PM)100% (Dec 4, 12:00 AM)30.26 "Hg (Dec 4, 12:00 AM)
Low25 °F (Dec 3, 3:00 AM)66% (Dec 15, 1:00 PM)29.15 "Hg (Dec 11, 6:00 PM)
Average44 °F89%29.85 "Hg
* Reported Dec 2 6:00 PM — Dec 17 6:00 PM, Vancouver, Weather by CustomWeather, © 2014

Note: Actual official high and low records may vary slightly from our data, if they occured in-between our weather recording intervals... More about our weather records

Advertising

Vancouver weather history for previous 24 hours

 ConditionsComfort  
Time TempWeatherWind HumidityBarometerVisibility
6:00 PM
Dec 17
45 °FLight rain. Mostly cloudy.6 mph93%29.90 "Hg15 mi
5:00 PM45 °FLight rain. Overcast.2 mph93%29.88 "Hg15 mi
4:00 PM43 °FLight rain. Overcast.3 mph93%29.87 "Hg15 mi
3:00 PM43 °FLight rain. Overcast.5 mph93%29.86 "Hg15 mi
2:00 PM45 °FLight rain. Mostly cloudy.6 mph93%29.85 "Hg15 mi
1:00 PM48 °FLight rain. More clouds than sun.3 mph87%29.85 "Hg20 mi
12:00 PM46 °FLight rain. Cloudy.2 mph93%29.85 "Hg15 mi
11:00 AM46 °FLight rain. Mostly cloudy.3 mph87%29.87 "Hg15 mi
10:00 AM45 °FLight rain. Mostly cloudy.2 mph87%29.86 "Hg15 mi
9:00 AM43 °FLight rain. More clouds than sun.6 mph93%29.85 "Hg15 mi
8:00 AM43 °FLight rain. Mostly cloudy.5 mph87%29.83 "Hg15 mi
7:00 AM43 °FMostly cloudy.6 mph87%29.82 "Hg15 mi
6:00 AM43 °FMostly cloudy.2 mph93%29.82 "Hg15 mi
5:00 AM41 °FOvercast.3 mph93%29.82 "Hg15 mi
4:00 AM43 °FOvercast.3 mph93%29.82 "Hg15 mi
3:00 AM43 °FOvercast.3 mph93%29.83 "Hg15 mi
2:00 AM43 °FMostly cloudy.2 mph93%29.83 "Hg15 mi
1:00 AM43 °FMostly cloudy.2 mph93%29.83 "Hg15 mi
12:00 AM43 °FPassing clouds.2 mph87%29.83 "Hg15 mi
11:00 PM
Dec 16
45 °FPassing clouds.7 mph87%29.84 "Hg15 mi
10:00 PM46 °FMostly cloudy.10 mph82%29.84 "Hg15 mi
9:00 PM46 °FMostly cloudy.8 mph82%29.85 "Hg15 mi
8:00 PM45 °FMostly cloudy.9 mph87%29.86 "Hg15 mi
7:00 PM46 °FOvercast.10 mph82%29.86 "Hg15 mi
Weather by CustomWeather, © 2014

See weather overviewHow to use our weather pages